sat.trackr.live / text

‹ back to catalog

2025-313C

NORAD 67250 · 2025-313C

PAYLOAD ACTIVE UNKNOWN

§ Identity

Operator
Country
TBD
Launch date
2025-12-28
Launch site
VOSTO
Launch vehicle
Mass (kg)
RCS (m²)

External: N2YO · Heavens-Above · Gunter

§ Orbital elements

Epoch: 2026-05-25T02:41:38.239296Z

Period
96.76 min
Inclination
97.6178°
Eccentricity
0.0153366
Mean motion
14.88188745 rev/d
Perigee alt
496.5 km
Apogee alt
710.7 km
Semi-major
6,981.7 km
B*
1.1747e-4
RAAN
216.6993°
Arg perigee
54.1085°
Mean anomaly
307.4258°
Rev number
2,192

§ Raw data

2025-313C1 67250U 25313C   26145.11224814  .00001285  00000+0  11747-3 0  99932 67250  97.6178 216.6993 0153366  54.1085 307.4258 14.88188745 21920

JSON: /api/v1/satellites/67250 · /tle

For live sub-satellite position, see the globe view (requires WebGL).

§ Visibility from observer

Set your observer location to see the next 7 days of passes ≥ 10°. The values pass through the URL so the page stays shareable.

No JS? Fill the form by hand. The geolocation button needs JavaScript.